Location: Milton Keynes
(52.0316°N, 0.7531°W)
Time: 12:36:29
(UTC+00:00)

Envisat - Pass Details

Date: 25 January 2019
Orbit: 764 x 766 km, 98.2° (Epoch: 20 February)

Event Time Altitude Azimuth Distance (km) Brightness Sun altitude
Rises 19:57:41 0° 208° (SSW) 3,224 6.5 -30.4°
Reaches altitude 10° 20:00:36 10° 225° (SW) 2,303 5.9 -30.9°
Maximum altitude 20:04:15 20° 271° (W) 1,735 5.5 -31.4°
Drops below altitude 10° 20:07:56 10° 318° (NW) 2,315 6.1 -32.0°
Sets 20:10:53 0° 335° (NNW) 3,247 6.7 -32.4°
